Vorticity
14 16 17 15 15 15 15 14 13 13 12 12 12 12 13 13 14 15 17 18 19 20 21 22 24 25 26 26 26 26 26 25 24 22 20 20 19 20 20 21 22 20 17 13 10 8 7 7 6 6 5 5 6 6 7 6 5 5 5 6 5 5 4 3 3 3 3 3 3 3 4 1 -1 -2 -2 0 3 5 6 5 5 5 6 4 3 2
14 15 16 16 14 14 15 14 13 12 12 12 11 11 11 12 13 14 16 17 18 20 21 22 23 24 26 26 27 27 27 26 25 24 22 20 20 20 20 22 22 22 20 15 12 9 7 7 6 6 5 5 6 6 6 6 5 5 5 6 6 5 4 4 3 3 3 3 3 3 4 2 0 -1 -2 -1 2 5 7 6 5 5 6 5 4 3
16 16 15 16 14 14 14 15 13 12 11 11 11 10 10 11 12 13 15 17 18 18 20 21 22 24 25 26 27 27 28 28 27 25 23 21 20 20 20 21 22 23 22 18 14 10 8 7 6 6 5 5 6 6 6 6 5 5 5 6 6 5 5 4 4 3 3 3 3 3 3 3 2 -0 -2 -1 1 4 7 6 5 4 5 5 5 4
15 15 16 16 15 14 13 14 14 13 11 11 10 10 10 10 11 12 14 16 18 19 19 20 21 23 24 25 26 27 28 28 28 27 24 22 21 20 20 21 22 23 23 21 17 13 9 7 6 6 5 6 6 6 6 6 5 5 5 6 6 6 5 4 4 4 3 3 3 3 3 4 3 1 -1 -1 0 3 7 7 6 5 5 5 5 5
14 14 16 16 15 14 14 14 14 13 12 11 10 10 9 9 9 10 12 15 17 18 19 20 20 22 23 24 26 27 28 29 28 28 26 24 22 21 20 21 22 23 23 22 20 16 11 8 7 6 6 6 6 6 6 6 5 5 5 5 6 6 5 5 4 4 4 3 3 3 3 3 3 2 0 -1 -0 2 6 7 6 5 5 5 5 5
15 14 16 15 15 15 16 15 14 13 12 11 10 10 9 8 8 9 10 13 14 16 18 19 20 21 22 24 26 27 28 29 29 28 27 25 23 22 21 21 22 22 23 23 21 18 14 10 8 6 6 6 6 7 7 6 5 4 4 5 6 6 5 5 4 4 4 3 3 2 2 3 3 3 1 -0 -1 1 4 6 6 6 5 5 4 4
16 15 16 14 14 14 15 15 14 13 12 11 11 10 9 8 8 8 9 10 13 15 16 18 19 20 21 23 25 27 28 29 29 29 28 27 25 23 22 22 22 22 23 23 22 20 16 12 9 7 6 6 6 7 7 6 5 4 4 5 5 6 6 5 5 4 4 4 3 3 2 3 3 3 2 0 -1 -0 1 4 6 6 5 5 4 5
18 17 15 15 15 15 14 14 14 13 12 11 11 10 9 8 7 7 7 8 11 13 15 16 17 18 19 21 23 26 27 29 30 30 30 28 26 24 23 22 22 22 23 23 23 21 19 15 11 8 7 6 7 7 7 6 4 4 4 5 6 6 6 5 5 4 4 4 3 3 2 2 3 3 2 1 -0 -1 -0 2 3 5 5 5 5 6
18 18 16 15 15 16 16 15 14 13 12 11 11 10 10 9 8 7 6 7 8 10 13 15 16 16 17 19 22 24 26 28 29 30 31 30 28 26 24 22 22 22 23 23 23 22 21 18 14 10 8 7 7 7 6 5 4 4 4 5 6 6 6 6 5 5 4 4 4 3 2 2 2 3 3 2 0 -1 -1 -0 1 3 5 5 6 6
17 17 17 16 15 15 16 16 16 14 12 11 10 10 9 9 8 8 6 6 7 8 11 13 15 16 17 18 20 22 25 27 28 30 31 31 30 28 25 23 22 22 22 23 24 23 22 20 16 13 9 7 7 6 6 5 4 4 4 5 6 6 6 6 5 5 5 4 4 4 3 2 2 2 2 2 1 0 -0 -1 -0 2 4 6 6 5
17 16 17 17 16 15 13 15 16 16 14 12 11 9 8 8 8 7 7 7 7 8 9 10 12 14 17 18 19 21 23 25 27 29 30 32 32 30 28 25 23 22 22 23 23 24 23 22 19 16 11 8 7 6 6 5 4 4 4 5 6 6 6 6 6 5 5 5 4 4 3 2 2 2 2 2 2 1 0 -0 -0 1 3 5 5 5
18 18 17 17 17 16 15 15 16 16 15 13 12 11 9 7 6 6 6 7 7 8 8 9 10 12 14 18 20 21 21 23 25 27 29 31 32 31 30 27 24 22 22 22 23 23 24 23 21 18 14 10 8 6 6 5 4 4 4 5 6 6 6 6 6 5 5 5 5 4 4 3 2 2 2 3 2 2 1 0 -0 1 2 4 5 5
18 17 17 17 16 16 16 17 17 16 15 13 12 12 11 10 8 7 6 6 6 7 8 9 10 11 12 15 18 20 22 23 25 27 29 30 31 32 31 28 26 23 22 22 22 23 24 24 22 20 16 12 9 7 6 5 5 4 4 5 5 6 6 6 6 6 5 5 5 5 4 3 3 2 2 3 2 2 1 0 0 0 2 4 5 5
19 18 17 17 16 16 16 16 17 17 16 14 12 12 12 12 11 9 7 6 6 6 6 7 9 11 13 14 16 18 20 22 24 26 28 30 32 32 32 30 27 25 23 22 22 23 24 24 23 21 18 14 11 8 6 5 5 4 4 5 5 6 6 6 6 6 5 6 5 5 5 4 3 2 2 2 2 2 1 1 0 0 1 3 4 4
19 19 18 17 17 16 16 16 16 16 16 15 14 13 13 12 11 9 8 8 8 7 6 6 7 9 12 15 17 18 18 20 22 25 27 28 30 32 33 32 30 27 24 22 22 23 24 24 24 22 20 16 13 10 7 6 5 4 4 5 5 5 5 5 5 5 5 6 6 5 5 4 4 3 2 2 2 2 1 1 0 -0 0 2 4 4
18 18 18 18 18 17 16 16 16 16 16 16 15 14 13 13 12 10 9 9 9 9 8 7 8 9 10 13 15 18 20 20 21 24 27 28 29 31 32 32 31 29 26 23 23 23 24 24 24 23 20 18 15 12 8 6 5 5 5 5 5 5 5 5 6 6 6 6 6 6 5 5 4 4 3 2 2 2 2 1 1 0 0 2 3 4
19 19 18 18 18 18 18 16 16 16 16 16 15 14 13 13 13 12 10 10 10 10 8 8 8 10 14 15 15 16 18 20 21 23 26 28 30 31 32 32 31 30 27 24 23 23 24 26 25 23 20 18 16 13 10 7 6 5 5 5 5 5 5 5 6 6 6 6 6 6 5 5 5 4 4 3 3 2 2 2 1 1 0 1 2 3
18 18 19 19 19 19 19 18 17 16 16 16 15 14 13 13 13 12 12 11 11 11 10 9 8 9 12 16 19 19 18 18 20 22 23 26 30 32 32 31 31 30 30 26 24 23 24 26 26 24 21 19 17 14 12 9 7 6 5 5 5 5 5 5 6 6 6 5 5 5 5 5 5 5 4 4 3 3 3 3 2 1 1 1 2 3
16 17 18 18 18 19 19 18 18 17 16 16 16 16 15 14 14 13 13 12 12 12 12 11 10 10 10 14 19 22 20 20 20 22 23 26 28 31 31 31 31 31 30 28 26 24 25 26 25 24 22 19 17 15 14 11 8 7 6 5 5 5 5 5 6 6 6 5 5 5 5 5 5 5 5 4 4 3 3 3 3 2 1 1 2 3
15 15 16 16 18 18 19 19 18 18 17 17 16 16 15 15 15 14 14 13 13 13 12 12 12 12 12 14 18 20 21 21 21 22 24 26 29 31 31 30 30 30 30 29 27 26 26 26 26 24 23 20 17 16 15 13 10 8 6 6 6 6 5 5 6 6 6 5 4 4 5 5 5 5 5 4 4 4 3 3 3 2 2 2 2 3
14 14 14 16 16 17 18 18 19 19 18 18 17 16 15 15 15 14 14 14 14 14 13 13 12 13 13 16 18 20 22 22 22 22 24 26 29 31 31 30 30 30 31 30 29 28 27 27 26 25 24 21 18 16 15 14 12 9 7 7 6 6 6 6 6 6 6 4 4 4 5 5 6 6 5 5 4 4 4 4 3 3 2 2 2 3
13 13 14 14 15 15 16 17 18 20 20 20 19 18 17 17 16 16 16 15 15 14 14 14 14 14 15 16 19 21 22 22 23 24 26 27 29 31 30 30 30 30 32 32 31 30 30 28 27 26 24 22 19 16 16 15 13 11 9 8 7 7 6 6 6 6 5 4 4 4 5 6 6 6 6 5 5 4 4 4 4 4 3 3 3 3
11 13 13 13 13 14 15 16 18 19 21 21 20 19 19 18 18 18 18 17 16 16 15 15 16 16 16 17 19 21 22 23 24 25 26 27 29 30 31 29 29 29 30 31 31 31 31 28 27 26 25 23 20 18 16 16 14 12 10 9 8 7 6 6 6 6 5 4 4 5 5 6 6 6 6 6 5 4 4 4 4 4 4 3 3 3
12 13 13 13 13 14 14 15 16 18 20 21 21 21 21 20 19 19 19 18 18 18 18 18 18 17 17 18 19 21 22 23 25 27 26 27 29 31 32 30 28 28 29 30 31 32 31 28 27 26 25 24 22 20 17 16 15 13 12 11 10 8 7 7 7 6 4 4 4 5 6 6 6 6 6 6 5 5 4 4 4 4 4 4 3 3
16 16 15 16 15 15 15 15 16 16 17 19 20 21 21 22 22 22 21 21 20 20 20 20 19 19 19 19 20 21 22 24 26 28 27 27 29 31 32 30 28 28 29 30 32 33 32 29 27 26 25 24 23 21 18 16 15 15 14 12 11 10 9 8 7 6 4 4 4 5 6 6 6 6 6 6 5 5 4 4 4 4 4 4 4 3
20 20 20 20 19 19 18 17 17 16 16 17 17 18 19 20 21 22 22 22 22 22 22 21 20 20 20 20 21 22 23 24 27 29 29 27 27 29 31 29 28 28 29 31 33 34 32 30 28 27 25 25 23 21 19 17 16 16 16 14 12 11 10 9 8 6 3 4 5 6 6 6 6 6 6 6 5 5 4 4 4 4 4 4 4 4
24 24 24 24 23 23 22 21 20 18 17 16 16 17 17 18 20 20 20 21 21 22 22 21 21 20 20 20 21 22 24 25 27 28 29 27 27 28 30 29 28 28 29 32 33 34 32 31 30 28 26 25 24 22 19 18 17 17 17 16 14 12 11 10 8 6 4 4 5 6 6 7 7 6 6 6 6 5 4 4 4 4 4 5 5 4
30 28 27 27 27 26 26 25 23 22 20 19 18 17 17 18 18 18 18 20 21 21 21 21 21 21 20 20 21 23 24 26 27 27 28 27 27 28 28 28 28 28 28 31 33 34 33 32 31 30 28 26 24 22 20 19 18 18 18 17 15 13 11 10 8 6 5 5 5 6 6 7 7 6 6 6 6 6 5 4 4 4 4 5 5 4
36 33 31 29 28 28 27 27 26 24 23 22 20 19 18 17 18 18 19 21 21 20 20 20 20 20 20 21 22 23 25 26 26 27 27 27 27 27 27 28 28 27 27 30 33 34 34 30 30 30 28 27 24 22 20 19 19 19 19 18 16 14 12 10 9 7 6 6 6 6 6 7 7 6 6 6 6 6 5 5 4 4 4 5 5 4
34 35 35 32 30 28 27 27 26 26 24 24 22 21 20 18 18 19 21 21 20 20 20 20 20 20 21 21 22 23 24 25 26 27 26 26 26 26 26 27 26 25 25 27 30 33 35 30 29 29 29 28 26 24 21 19 19 20 20 19 17 15 12 11 9 8 7 7 7 7 7 7 7 6 6 6 6 6 6 5 4 4 4 5 5 4
20 27 33 34 33 30 27 26 26 26 25 25 24 23 22 20 19 20 21 20 20 20 20 20 20 20 21 22 22 23 24 25 26 27 26 25 25 25 26 25 24 23 22 23 26 29 33 31 30 30 28 28 27 26 22 21 21 21 20 20 18 16 13 12 10 9 8 8 7 7 7 7 7 6 6 6 6 6 6 5 5 4 4 5 4 4
6 12 20 28 33 34 31 29 27 26 26 25 25 24 24 22 21 21 21 21 21 21 21 21 21 21 21 22 22 23 26 27 27 27 24 24 26 27 28 25 24 23 22 22 24 26 27 29 30 30 32 34 30 24 18 21 22 21 22 21 19 17 15 14 12 10 9 9 8 7 7 7 7 7 6 6 6 6 6 6 5 5 5 5 4 4
5 5 6 14 24 31 35 33 31 29 27 27 26 26 25 24 23 22 22 22 22 22 22 22 23 23 23 23 23 24 26 27 28 28 24 24 26 28 31 26 24 24 23 26 28 27 22 26 23 22 30 41 38 29 22 22 20 20 23 22 20 18 18 16 14 11 10 9 9 8 7 7 7 7 7 7 7 7 6 6 6 5 5 5 5 5
8 6 4 5 10 18 27 31 32 32 30 29 28 27 27 26 25 24 23 24 23 23 23 24 24 25 25 25 25 25 26 28 29 30 28 25 24 25 29 26 26 27 25 28 31 30 25 27 21 18 31 34 31 29 31 27 23 21 23 21 21 21 20 18 15 13 12 10 9 8 8 8 8 7 7 7 7 7 7 7 6 6 6 6 6 7
7 7 6 5 5 6 11 19 26 30 33 32 30 28 27 27 26 25 24 25 25 25 24 24 25 25 26 27 27 28 29 32 32 31 29 23 20 20 24 27 29 30 30 31 31 30 28 24 18 17 33 36 28 21 30 28 26 24 23 20 20 22 25 20 16 15 14 11 9 9 9 10 10 8 7 7 7 7 7 7 7 7 7 7 8 9
6 7 7 8 8 7 6 8 13 20 28 31 31 30 28 27 26 25 24 25 26 26 26 26 25 25 25 26 27 30 34 34 32 28 22 16 15 16 20 24 27 29 34 38 34 28 25 25 20 18 30 33 27 22 27 26 24 22 22 21 19 20 26 20 16 13 14 12 10 8 8 11 12 11 9 8 7 7 7 7 7 7 7 8 9 10
6 7 7 8 9 10 10 9 9 11 16 22 27 30 32 29 28 26 25 25 25 26 26 26 26 26 25 26 29 33 36 34 28 21 13 11 12 15 16 17 20 25 35 42 37 27 17 18 20 23 30 29 29 28 26 25 23 21 19 21 20 18 20 18 14 12 14 14 12 10 7 10 12 13 12 11 9 8 7 6 6 7 7 8 9 10
8 6 6 6 7 8 9 10 10 10 11 12 15 20 26 29 30 29 26 25 25 25 26 26 26 26 26 29 33 37 37 30 20 11 6 9 11 11 8 9 13 21 33 40 36 26 12 10 15 23 29 27 26 25 24 22 21 20 22 22 21 19 15 13 12 12 13 16 16 13 9 9 11 13 13 13 12 10 8 7 6 5 6 7 8 9
18 12 7 6 5 5 5 6 8 9 9 5 3 4 8 18 26 29 27 26 24 24 24 25 25 26 28 32 37 37 32 20 8 1 2 9 9 4 -0 2 8 18 28 33 31 24 13 10 14 20 20 27 32 30 20 22 18 15 19 23 23 20 14 9 9 11 12 15 17 16 13 12 12 13 13 13 13 12 10 8 6 5 4 6 7 7
31 27 18 11 6 4 2 2 3 3 1 -2 -1 2 8 16 23 26 26 25 24 23 23 24 25 27 31 36 37 32 21 6 -4 -5 5 10 7 1 -4 -0 7 16 24 26 23 17 12 20 28 30 23 18 25 32 26 22 19 16 14 21 24 21 13 8 7 8 8 10 13 16 15 15 15 14 13 13 12 12 12 10 8 6 5 6 7 7
28 31 31 27 20 14 8 5 2 1 -0 2 6 10 15 20 23 25 26 24 23 23 23 23 25 28 34 36 32 22 7 -6 -9 -3 10 12 9 5 3 7 13 18 22 21 16 10 10 21 30 34 28 21 24 30 33 18 18 20 13 20 25 24 13 8 7 7 7 7 9 12 14 16 16 16 14 13 11 11 13 12 11 9 8 8 8 8
14 14 14 21 28 31 28 20 13 8 6 9 12 16 20 23 24 26 26 26 25 24 24 24 28 32 36 33 23 10 -6 -13 -8 2 13 13 11 11 14 19 22 24 24 20 13 9 12 20 22 19 15 19 29 40 46 22 17 18 12 19 26 28 19 9 5 4 3 5 7 9 11 14 14 14 13 13 12 12 14 16 16 14 12 9 7 6
11 9 6 10 19 30 38 35 29 23 19 17 18 19 23 25 26 26 26 26 26 26 25 26 30 35 37 29 15 0 -12 -12 -4 7 13 12 13 15 21 25 28 29 30 24 16 12 16 19 16 10 8 12 22 35 46 33 23 17 15 16 22 27 26 18 10 3 -1 5 8 9 7 9 11 13 11 13 14 15 17 20 20 18 14 9 5 2
7 7 13 20 25 29 32 32 31 29 26 24 23 24 26 27 26 26 25 25 25 26 26 28 32 35 34 22 9 -4 -12 -7 2 9 12 11 13 18 24 27 30 32 32 24 18 15 20 20 14 9 10 16 22 29 39 35 25 16 14 14 17 21 25 22 15 7 2 6 7 7 7 4 5 8 13 14 16 18 22 24 22 18 11 5 2 0
6 6 14 25 29 29 28 28 27 26 26 25 25 26 28 28 26 25 25 26 26 26 27 31 34 34 27 15 3 -5 -8 0 8 12 11 12 15 20 25 29 32 33 30 22 17 15 16 10 7 7 12 19 29 34 30 38 32 21 12 12 14 18 21 20 15 11 8 7 7 6 6 2 1 4 12 14 16 20 25 26 22 15 7 2 -1 0
9 10 15 25 28 28 28 27 25 24 24 24 26 27 28 27 26 25 25 26 27 28 29 33 34 31 21 9 -1 -6 -4 7 12 13 11 14 18 23 28 30 32 32 27 18 13 9 5 1 2 7 13 19 28 33 30 29 30 26 13 10 12 15 18 17 16 14 12 10 8 6 5 1 -1 0 6 10 13 18 25 25 20 12 3 -1 -1 3
9 11 15 24 27 27 29 27 24 23 23 24 26 27 28 27 25 24 24 25 27 29 32 33 31 25 14 4 -3 -4 2 10 13 12 10 15 20 26 30 32 32 30 23 13 4 -2 -2 2 4 7 10 19 30 37 37 30 32 33 20 11 10 11 13 14 16 17 16 13 10 6 3 -0 -2 -2 1 4 9 15 22 23 18 9 0 -1 4 12
6 9 15 20 25 28 30 27 24 23 23 25 27 27 27 26 25 24 24 26 28 31 33 32 27 18 7 -0 -4 -2 4 9 10 9 9 15 22 28 32 34 34 29 17 1 -8 -10 -4 -1 2 4 6 18 26 31 35 32 35 36 30 18 12 10 11 13 15 16 17 15 11 7 2 -1 -2 -1 1 1 5 10 17 22 20 14 5 5 13 20
2 6 13 18 22 26 29 26 24 23 24 26 27 28 26 25 24 24 24 27 30 32 33 29 22 13 2 -4 -4 0 6 9 9 8 9 15 22 29 33 36 34 25 7 -10 -15 -12 -4 -4 -5 -4 -0 15 27 34 35 32 34 36 36 22 14 10 10 11 14 16 18 16 12 7 2 -1 -1 2 4 2 4 7 13 19 21 19 15 17 21 22
2 6 14 16 19 23 28 26 24 23 25 27 28 28 27 25 24 23 24 27 30 31 30 25 17 8 -1 -6 -4 1 8 10 10 9 10 15 22 29 35 38 32 17 -7 -17 -13 -3 7 6 -3 -11 -12 9 24 33 34 32 31 32 36 26 16 10 8 10 13 16 18 16 12 6 2 1 3 6 6 4 3 6 11 15 17 18 18 23 25 22
3 9 18 17 18 20 26 24 23 23 25 27 28 28 27 25 24 24 25 27 29 29 26 20 13 6 -0 -4 -3 1 7 11 13 14 14 16 22 28 36 36 24 5 -19 -16 -2 14 26 30 17 -2 -17 3 20 29 29 28 27 28 32 30 22 13 7 8 11 15 18 15 9 4 1 4 8 10 10 6 5 7 12 13 16 18 21 24 26 22
Height
5305 5307 5310 5313 5315 5318 5321 5324 5327 5330 5333 5336 5339 5342 5345 5348 5351 5354 5357 5359 5363 5366 5369 5373 5376 5380 5384 5389 5393 5398 5403 5408 5413 5418 5424 5430 5437 5443 5449 5455 5462 5469 5477 5484 5492 5499 5507 5514 5522 5529 5536 5543 5550 5556 5563 5569 5576 5582 5588 5594 5600 5606 5612 5618 5624 5629 5635 5640 5646 5651 5656 5662 5667 5671 5676 5680 5685 5689 5693 5698 5702 5705 5709 5713 5716 5720
5304 5307 5309 5312 5314 5317 5320 5323 5326 5329 5332 5335 5338 5341 5343 5347 5349 5352 5354 5357 5360 5363 5367 5370 5373 5377 5381 5386 5390 5394 5399 5403 5408 5414 5420 5426 5432 5438 5444 5451 5457 5464 5471 5478 5486 5494 5501 5509 5516 5523 5530 5537 5544 5551 5557 5564 5570 5577 5583 5589 5595 5601 5608 5614 5620 5625 5631 5636 5642 5647 5652 5658 5663 5668 5673 5677 5682 5686 5690 5694 5698 5702 5706 5709 5713 5717
5304 5306 5308 5311 5313 5316 5318 5321 5324 5327 5330 5333 5336 5339 5342 5345 5347 5350 5353 5355 5358 5361 5364 5367 5371 5374 5378 5382 5386 5391 5395 5399 5404 5410 5416 5422 5428 5434 5440 5446 5452 5459 5465 5473 5480 5488 5495 5503 5510 5517 5524 5531 5538 5545 5552 5558 5565 5572 5578 5584 5591 5597 5603 5609 5615 5621 5627 5632 5638 5643 5648 5654 5659 5664 5669 5673 5678 5683 5687 5690 5694 5698 5703 5706 5710 5714
5303 5305 5307 5310 5312 5315 5317 5320 5323 5325 5328 5331 5334 5337 5340 5343 5346 5348 5350 5353 5356 5358 5362 5365 5368 5372 5375 5379 5383 5387 5391 5396 5401 5406 5412 5417 5423 5429 5435 5440 5447 5453 5460 5467 5474 5482 5489 5496 5503 5510 5518 5525 5532 5539 5546 5553 5560 5567 5573 5580 5586 5593 5599 5605 5611 5617 5623 5628 5634 5639 5645 5650 5655 5661 5666 5670 5675 5679 5683 5688 5692 5696 5699 5703 5707 5711
5302 5304 5306 5309 5311 5314 5316 5318 5321 5324 5327 5330 5333 5336 5339 5341 5344 5346 5348 5351 5354 5357 5359 5362 5366 5369 5372 5376 5379 5383 5388 5392 5397 5402 5407 5413 5418 5424 5429 5435 5442 5448 5455 5462 5469 5477 5484 5491 5498 5505 5513 5520 5527 5534 5541 5548 5555 5562 5569 5576 5582 5588 5595 5601 5607 5613 5618 5624 5630 5635 5641 5647 5652 5657 5662 5667 5672 5676 5680 5685 5688 5693 5696 5700 5704 5708
5301 5303 5305 5308 5310 5313 5315 5318 5320 5323 5326 5329 5332 5334 5337 5339 5342 5344 5347 5349 5352 5354 5357 5360 5363 5366 5369 5373 5376 5380 5384 5388 5393 5398 5403 5408 5413 5419 5425 5431 5437 5444 5450 5458 5465 5472 5479 5487 5494 5501 5508 5516 5523 5530 5537 5544 5551 5558 5565 5572 5578 5584 5590 5597 5603 5608 5614 5620 5626 5632 5637 5643 5648 5653 5659 5664 5668 5673 5677 5682 5686 5689 5693 5697 5701 5705
5300 5302 5305 5307 5309 5311 5314 5316 5319 5322 5324 5327 5330 5333 5335 5338 5340 5343 5345 5347 5349 5352 5354 5358 5361 5363 5367 5370 5373 5377 5381 5385 5390 5394 5399 5404 5409 5415 5421 5427 5434 5440 5447 5453 5460 5467 5474 5482 5489 5497 5504 5512 5519 5526 5533 5540 5548 5555 5562 5568 5574 5580 5587 5593 5599 5605 5610 5616 5622 5628 5633 5639 5645 5650 5655 5660 5665 5670 5674 5678 5683 5687 5690 5694 5698 5702
5299 5301 5304 5306 5308 5310 5313 5315 5317 5320 5323 5326 5328 5331 5334 5336 5339 5341 5343 5345 5347 5350 5353 5356 5358 5361 5364 5367 5370 5374 5378 5382 5386 5391 5395 5400 5405 5411 5417 5423 5430 5436 5443 5449 5456 5463 5470 5477 5484 5491 5499 5506 5514 5522 5529 5537 5544 5552 5558 5564 5570 5577 5583 5589 5595 5601 5607 5612 5618 5624 5629 5635 5641 5646 5652 5657 5662 5667 5671 5676 5680 5683 5687 5691 5695 5698
5298 5300 5302 5304 5307 5309 5311 5313 5316 5318 5321 5324 5327 5329 5332 5334 5337 5339 5341 5343 5346 5348 5351 5353 5356 5359 5362 5364 5367 5371 5374 5378 5383 5387 5392 5396 5402 5407 5413 5419 5425 5432 5438 5445 5451 5458 5465 5472 5479 5487 5494 5502 5509 5517 5525 5533 5540 5547 5553 5560 5566 5573 5579 5585 5591 5597 5603 5608 5614 5620 5626 5631 5637 5643 5648 5653 5658 5663 5668 5672 5676 5680 5683 5688 5691 5695
5297 5299 5301 5303 5306 5308 5310 5312 5314 5317 5319 5322 5325 5327 5330 5332 5334 5337 5339 5342 5343 5346 5348 5351 5354 5356 5358 5361 5364 5368 5371 5375 5379 5383 5388 5393 5398 5403 5409 5415 5421 5427 5434 5440 5447 5453 5460 5467 5474 5482 5489 5497 5505 5513 5520 5527 5534 5541 5548 5555 5562 5568 5574 5581 5587 5593 5599 5605 5610 5616 5622 5628 5633 5639 5644 5649 5654 5659 5664 5668 5673 5677 5680 5684 5688 5692
5296 5298 5300 5302 5304 5307 5308 5311 5313 5315 5318 5321 5323 5326 5328 5330 5333 5334 5337 5339 5341 5343 5346 5349 5351 5353 5356 5358 5362 5365 5368 5372 5376 5380 5384 5389 5394 5399 5405 5410 5417 5423 5429 5436 5442 5449 5456 5463 5469 5477 5484 5492 5500 5507 5514 5522 5529 5536 5543 5550 5557 5563 5570 5576 5583 5589 5595 5601 5607 5613 5618 5624 5630 5635 5640 5646 5651 5656 5660 5665 5669 5673 5677 5681 5685 5689
5296 5297 5299 5301 5303 5305 5307 5309 5312 5314 5317 5319 5322 5324 5326 5328 5330 5333 5334 5336 5338 5341 5344 5346 5348 5351 5353 5356 5359 5362 5365 5369 5373 5377 5381 5385 5390 5395 5401 5407 5413 5419 5425 5431 5438 5444 5451 5458 5464 5472 5479 5487 5494 5502 5509 5517 5524 5532 5539 5546 5552 5558 5565 5572 5578 5585 5591 5597 5603 5609 5614 5620 5626 5631 5637 5642 5647 5652 5657 5661 5665 5670 5674 5678 5682 5686
5295 5297 5298 5300 5302 5304 5306 5308 5310 5313 5315 5317 5319 5321 5323 5325 5328 5330 5332 5334 5336 5339 5341 5344 5346 5348 5351 5353 5356 5359 5363 5366 5370 5373 5378 5382 5387 5392 5397 5403 5409 5415 5421 5427 5433 5440 5446 5453 5460 5467 5474 5482 5490 5497 5505 5512 5519 5527 5534 5541 5547 5554 5561 5568 5574 5581 5587 5593 5599 5604 5610 5616 5621 5627 5633 5638 5643 5648 5653 5658 5662 5667 5671 5675 5679 5683
5294 5296 5297 5299 5301 5302 5304 5306 5308 5310 5312 5314 5316 5318 5320 5323 5326 5328 5330 5332 5334 5337 5339 5342 5344 5346 5348 5350 5353 5356 5360 5363 5367 5370 5374 5379 5383 5388 5393 5399 5405 5411 5417 5423 5429 5436 5442 5448 5455 5463 5470 5478 5485 5493 5500 5508 5515 5522 5529 5536 5543 5549 5556 5563 5570 5576 5583 5589 5594 5600 5606 5612 5618 5623 5629 5634 5639 5644 5649 5654 5659 5664 5668 5672 5676 5680
5293 5295 5296 5298 5299 5301 5303 5304 5306 5308 5310 5312 5314 5317 5320 5322 5324 5326 5328 5330 5332 5335 5338 5340 5342 5344 5346 5348 5350 5353 5357 5361 5364 5368 5372 5376 5379 5384 5389 5395 5401 5407 5413 5419 5425 5431 5437 5443 5451 5458 5465 5473 5481 5488 5496 5503 5510 5517 5524 5531 5538 5545 5552 5558 5565 5572 5578 5584 5591 5597 5603 5609 5615 5620 5626 5631 5636 5641 5646 5651 5656 5660 5665 5669 5673 5677
5293 5294 5295 5297 5298 5300 5301 5303 5305 5306 5308 5311 5313 5316 5318 5320 5322 5323 5325 5328 5330 5332 5335 5338 5339 5341 5343 5345 5348 5351 5354 5358 5362 5366 5369 5373 5376 5380 5386 5392 5398 5403 5409 5416 5422 5427 5432 5439 5446 5454 5461 5469 5477 5484 5491 5498 5506 5513 5519 5526 5533 5540 5547 5554 5561 5568 5574 5580 5587 5593 5600 5606 5612 5617 5622 5627 5633 5638 5643 5648 5653 5657 5662 5666 5670 5674
5292 5293 5294 5296 5297 5298 5300 5302 5303 5305 5307 5309 5311 5313 5315 5317 5319 5321 5323 5325 5328 5330 5333 5335 5337 5339 5341 5343 5345 5348 5352 5355 5359 5362 5366 5369 5373 5377 5383 5389 5395 5401 5407 5413 5418 5423 5429 5436 5443 5450 5457 5465 5472 5479 5487 5494 5501 5508 5515 5522 5529 5536 5543 5550 5557 5563 5570 5577 5583 5590 5597 5603 5609 5614 5619 5624 5629 5634 5639 5644 5649 5654 5658 5663 5667 5671
5292 5293 5293 5294 5296 5297 5298 5300 5302 5303 5305 5307 5309 5311 5313 5315 5317 5319 5322 5324 5326 5328 5330 5332 5334 5336 5338 5340 5343 5346 5349 5353 5356 5359 5363 5366 5370 5374 5379 5385 5391 5397 5403 5408 5414 5419 5425 5432 5439 5446 5453 5461 5468 5475 5483 5490 5497 5504 5511 5518 5525 5532 5538 5546 5553 5559 5566 5573 5580 5587 5593 5599 5605 5610 5615 5620 5625 5631 5636 5641 5646 5651 5655 5659 5663 5668
5291 5292 5293 5293 5294 5295 5297 5298 5300 5302 5303 5305 5307 5309 5311 5313 5315 5318 5319 5322 5323 5326 5328 5330 5332 5334 5336 5337 5339 5342 5346 5350 5353 5357 5360 5363 5367 5371 5376 5382 5388 5393 5398 5404 5410 5415 5421 5428 5434 5442 5449 5457 5465 5472 5479 5486 5493 5500 5508 5514 5521 5528 5535 5542 5549 5556 5563 5570 5577 5584 5590 5596 5601 5607 5612 5617 5622 5627 5632 5638 5643 5647 5652 5656 5660 5664
5290 5291 5292 5293 5293 5294 5295 5297 5298 5300 5302 5303 5305 5307 5309 5311 5313 5315 5317 5319 5321 5323 5325 5328 5330 5331 5333 5334 5336 5340 5344 5348 5351 5354 5358 5361 5364 5368 5374 5379 5385 5391 5396 5402 5407 5412 5418 5424 5431 5438 5446 5454 5461 5469 5476 5483 5490 5497 5504 5511 5518 5524 5531 5539 5546 5553 5560 5567 5574 5581 5587 5592 5598 5603 5608 5613 5618 5623 5629 5634 5639 5644 5649 5653 5658 5662
5290 5290 5291 5292 5293 5293 5294 5295 5297 5298 5300 5302 5304 5306 5307 5309 5311 5313 5315 5317 5319 5321 5323 5325 5327 5328 5330 5332 5335 5338 5342 5345 5349 5352 5355 5358 5361 5366 5371 5377 5382 5387 5393 5398 5403 5409 5415 5422 5429 5436 5444 5452 5459 5465 5473 5479 5487 5494 5501 5508 5514 5521 5528 5535 5543 5550 5557 5564 5571 5577 5583 5589 5594 5599 5604 5610 5615 5620 5626 5631 5636 5641 5646 5650 5654 5658
5289 5290 5290 5291 5292 5293 5293 5294 5295 5296 5298 5300 5302 5303 5305 5307 5308 5310 5312 5314 5317 5319 5321 5322 5324 5326 5328 5330 5332 5335 5339 5343 5346 5349 5352 5356 5359 5364 5368 5373 5378 5384 5390 5395 5400 5405 5412 5419 5427 5434 5442 5449 5456 5463 5469 5476 5484 5491 5498 5505 5512 5519 5526 5533 5539 5546 5553 5561 5568 5574 5580 5585 5590 5596 5601 5606 5612 5617 5622 5628 5633 5638 5643 5647 5651 5656
5289 5289 5289 5290 5291 5291 5292 5293 5294 5295 5296 5298 5299 5301 5303 5304 5306 5308 5310 5312 5314 5316 5318 5319 5321 5323 5326 5328 5330 5333 5337 5340 5343 5347 5350 5354 5357 5361 5365 5370 5376 5381 5387 5392 5397 5403 5410 5417 5425 5432 5439 5446 5453 5460 5467 5474 5481 5488 5495 5502 5509 5517 5524 5530 5537 5543 5550 5558 5565 5571 5576 5582 5587 5592 5598 5603 5608 5613 5619 5624 5629 5635 5639 5644 5648 5653
5288 5288 5288 5289 5289 5290 5291 5292 5293 5293 5295 5296 5298 5299 5301 5303 5304 5306 5308 5309 5311 5313 5315 5318 5320 5322 5324 5326 5329 5332 5335 5338 5341 5345 5348 5352 5354 5357 5361 5368 5373 5379 5384 5388 5393 5400 5408 5415 5423 5429 5436 5443 5450 5457 5464 5471 5478 5485 5493 5499 5507 5514 5521 5527 5533 5540 5548 5555 5562 5568 5573 5578 5583 5589 5594 5599 5605 5610 5616 5621 5626 5631 5636 5641 5645 5650
5287 5287 5288 5288 5288 5289 5290 5290 5291 5292 5293 5295 5296 5298 5299 5300 5301 5303 5305 5307 5309 5311 5313 5315 5317 5319 5321 5323 5326 5329 5332 5335 5339 5342 5345 5348 5350 5354 5360 5366 5372 5377 5381 5385 5391 5398 5406 5413 5420 5426 5433 5440 5448 5455 5462 5469 5476 5483 5489 5496 5503 5511 5518 5524 5531 5538 5545 5552 5559 5564 5570 5575 5580 5585 5591 5596 5602 5607 5613 5618 5623 5628 5633 5638 5642 5647
5286 5286 5286 5287 5287 5288 5288 5289 5290 5291 5292 5293 5293 5295 5296 5298 5299 5301 5303 5305 5307 5308 5310 5312 5314 5316 5318 5321 5324 5327 5330 5333 5337 5339 5342 5345 5349 5353 5359 5365 5370 5374 5379 5384 5391 5398 5405 5411 5418 5424 5431 5438 5445 5452 5459 5466 5473 5479 5486 5493 5500 5507 5514 5521 5528 5536 5543 5550 5556 5561 5566 5571 5577 5582 5588 5593 5598 5604 5609 5614 5620 5625 5630 5634 5639 5643
5285 5285 5286 5286 5286 5287 5287 5288 5289 5289 5290 5291 5292 5293 5295 5296 5298 5299 5300 5302 5303 5306 5308 5310 5312 5314 5317 5320 5322 5325 5328 5332 5334 5337 5340 5343 5348 5352 5358 5363 5368 5373 5378 5383 5390 5396 5403 5409 5415 5422 5429 5436 5443 5450 5457 5463 5470 5476 5483 5489 5496 5503 5511 5518 5526 5533 5540 5546 5552 5558 5563 5568 5573 5579 5585 5590 5596 5601 5606 5611 5616 5621 5626 5631 5636 5640
5285 5285 5285 5285 5286 5286 5286 5287 5288 5288 5289 5290 5291 5292 5293 5295 5296 5297 5298 5300 5302 5304 5306 5308 5310 5313 5315 5317 5319 5323 5326 5329 5332 5334 5338 5342 5346 5350 5355 5361 5366 5371 5377 5382 5388 5393 5399 5406 5412 5419 5426 5434 5441 5448 5454 5460 5466 5473 5479 5486 5493 5500 5508 5515 5523 5529 5536 5543 5549 5554 5560 5565 5571 5576 5582 5587 5593 5598 5603 5608 5613 5618 5623 5628 5632 5636
5285 5285 5285 5285 5285 5285 5286 5286 5287 5287 5288 5289 5290 5291 5292 5293 5294 5295 5297 5299 5301 5303 5304 5306 5308 5311 5313 5315 5318 5321 5325 5328 5330 5333 5336 5340 5344 5349 5354 5359 5365 5370 5375 5380 5385 5391 5396 5403 5410 5417 5424 5430 5437 5444 5450 5458 5464 5470 5477 5483 5490 5497 5505 5512 5519 5526 5533 5539 5545 5551 5557 5562 5568 5573 5579 5584 5590 5595 5600 5605 5610 5615 5619 5624 5628 5633
5285 5285 5285 5284 5284 5285 5285 5285 5286 5287 5287 5288 5289 5290 5291 5292 5293 5294 5296 5298 5299 5301 5303 5304 5307 5309 5311 5314 5317 5320 5323 5325 5328 5332 5336 5339 5343 5348 5353 5359 5363 5368 5373 5378 5384 5388 5394 5401 5408 5415 5422 5428 5435 5441 5448 5455 5462 5468 5474 5480 5487 5494 5501 5508 5516 5523 5530 5536 5542 5548 5554 5559 5565 5571 5576 5582 5587 5592 5597 5602 5607 5611 5616 5621 5625 5630
5287 5286 5285 5285 5285 5284 5285 5285 5285 5286 5287 5287 5288 5289 5290 5291 5292 5293 5295 5296 5298 5299 5301 5303 5305 5308 5310 5313 5316 5318 5320 5323 5327 5331 5335 5338 5343 5347 5352 5357 5361 5366 5371 5377 5382 5388 5394 5401 5407 5414 5421 5428 5434 5440 5447 5453 5459 5464 5471 5477 5484 5491 5498 5505 5513 5520 5527 5533 5539 5545 5551 5557 5562 5568 5573 5578 5583 5588 5593 5598 5603 5608 5613 5618 5623 5627
5288 5288 5287 5286 5286 5285 5285 5285 5285 5285 5286 5287 5287 5288 5289 5290 5291 5292 5293 5295 5297 5299 5300 5302 5304 5307 5309 5311 5314 5316 5319 5323 5327 5330 5334 5338 5342 5347 5351 5355 5360 5365 5370 5374 5380 5386 5393 5399 5406 5413 5419 5426 5432 5438 5444 5450 5456 5462 5468 5474 5481 5488 5495 5503 5510 5517 5523 5530 5536 5543 5548 5554 5560 5565 5570 5576 5581 5586 5591 5596 5601 5606 5610 5615 5620 5625
5290 5290 5289 5288 5287 5286 5286 5286 5285 5285 5286 5286 5287 5287 5288 5289 5290 5291 5293 5294 5296 5298 5300 5302 5304 5306 5308 5310 5313 5316 5319 5323 5327 5330 5334 5338 5343 5347 5351 5355 5360 5364 5369 5373 5378 5383 5390 5397 5404 5411 5418 5424 5430 5436 5442 5448 5453 5459 5466 5473 5480 5487 5493 5501 5509 5515 5521 5527 5534 5541 5547 5552 5557 5563 5568 5573 5578 5583 5588 5593 5598 5603 5608 5613 5618 5623
5291 5291 5290 5290 5289 5288 5288 5287 5287 5286 5286 5286 5287 5287 5288 5288 5290 5291 5292 5293 5295 5297 5299 5301 5303 5305 5308 5310 5313 5316 5320 5323 5327 5330 5335 5340 5344 5348 5352 5356 5360 5364 5369 5373 5378 5383 5389 5396 5403 5409 5414 5421 5428 5434 5441 5447 5453 5459 5464 5472 5478 5485 5493 5500 5508 5514 5519 5525 5532 5539 5545 5551 5555 5560 5566 5571 5576 5581 5586 5591 5596 5602 5607 5612 5617 5622
5292 5291 5291 5291 5291 5290 5290 5289 5288 5288 5287 5287 5287 5287 5288 5288 5289 5290 5292 5293 5295 5297 5298 5300 5303 5305 5307 5310 5313 5316 5319 5323 5327 5331 5336 5340 5345 5349 5353 5357 5361 5365 5369 5373 5377 5383 5389 5396 5402 5407 5412 5418 5427 5435 5441 5445 5451 5458 5464 5471 5478 5484 5492 5499 5506 5512 5518 5524 5531 5537 5543 5548 5553 5558 5564 5569 5574 5579 5584 5589 5595 5600 5605 5610 5614 5619
5292 5292 5291 5291 5291 5291 5291 5291 5290 5290 5289 5288 5288 5288 5288 5289 5289 5290 5292 5293 5294 5296 5298 5300 5302 5304 5307 5310 5313 5316 5319 5323 5327 5332 5336 5341 5345 5350 5354 5358 5362 5366 5369 5372 5376 5382 5388 5394 5399 5404 5410 5417 5426 5434 5439 5443 5449 5456 5464 5471 5478 5484 5491 5497 5504 5511 5517 5523 5529 5535 5541 5546 5551 5557 5562 5567 5572 5577 5582 5588 5593 5598 5603 5608 5612 5617
5293 5292 5292 5292 5291 5291 5291 5292 5292 5292 5291 5291 5290 5289 5289 5289 5290 5291 5292 5293 5294 5296 5298 5300 5302 5304 5307 5309 5313 5316 5320 5324 5328 5332 5336 5341 5345 5349 5354 5359 5363 5367 5369 5372 5377 5382 5388 5393 5398 5403 5409 5416 5424 5431 5436 5441 5448 5455 5462 5470 5478 5484 5490 5496 5502 5508 5515 5522 5528 5533 5539 5544 5550 5555 5561 5566 5571 5576 5581 5586 5591 5595 5600 5605 5609 5614
5294 5293 5293 5293 5292 5292 5292 5292 5292 5292 5292 5292 5292 5292 5292 5291 5291 5291 5292 5293 5294 5296 5298 5300 5302 5304 5307 5310 5313 5317 5321 5325 5328 5332 5336 5341 5344 5349 5354 5359 5363 5366 5368 5372 5377 5383 5388 5393 5398 5403 5410 5416 5423 5428 5433 5439 5446 5453 5460 5467 5474 5481 5488 5494 5501 5507 5513 5520 5527 5532 5538 5543 5548 5553 5559 5564 5569 5575 5580 5584 5588 5593 5597 5602 5607 5611
5294 5294 5294 5293 5293 5293 5292 5292 5292 5292 5292 5292 5292 5292 5292 5292 5292 5292 5293 5293 5295 5296 5298 5300 5302 5304 5307 5310 5313 5318 5321 5325 5328 5332 5337 5340 5344 5348 5353 5358 5361 5365 5368 5372 5377 5383 5388 5393 5398 5403 5409 5417 5423 5428 5432 5438 5445 5452 5458 5465 5472 5479 5486 5493 5499 5505 5512 5518 5525 5531 5537 5542 5547 5552 5557 5562 5566 5571 5576 5580 5585 5590 5594 5599 5604 5609
5295 5295 5294 5294 5294 5293 5293 5293 5292 5292 5291 5291 5291 5291 5290 5290 5291 5291 5292 5293 5294 5296 5298 5300 5302 5305 5308 5311 5314 5318 5322 5325 5329 5333 5337 5341 5344 5348 5352 5356 5359 5363 5367 5373 5378 5384 5389 5393 5398 5403 5409 5416 5422 5428 5433 5439 5445 5451 5458 5465 5472 5479 5485 5490 5496 5503 5510 5516 5521 5528 5534 5540 5545 5550 5555 5559 5563 5567 5572 5577 5582 5588 5592 5597 5602 5607
5296 5295 5295 5295 5295 5294 5293 5293 5292 5292 5292 5291 5291 5291 5291 5291 5291 5291 5292 5293 5295 5296 5298 5300 5303 5306 5308 5312 5315 5319 5322 5325 5329 5334 5338 5341 5345 5348 5351 5354 5358 5362 5367 5373 5378 5383 5388 5393 5399 5405 5411 5415 5420 5426 5433 5439 5445 5452 5459 5466 5471 5477 5482 5488 5494 5500 5507 5513 5519 5525 5531 5537 5543 5548 5553 5557 5561 5566 5570 5576 5581 5587 5592 5596 5601 5605
5297 5297 5296 5296 5295 5294 5293 5293 5293 5292 5292 5292 5292 5292 5292 5292 5292 5292 5293 5294 5296 5297 5299 5301 5303 5307 5310 5313 5316 5319 5322 5326 5330 5335 5338 5342 5345 5348 5351 5354 5358 5362 5368 5373 5378 5383 5388 5393 5400 5405 5410 5416 5421 5427 5433 5440 5445 5452 5460 5465 5469 5474 5480 5486 5493 5499 5506 5512 5518 5523 5530 5536 5542 5546 5550 5554 5559 5564 5569 5575 5580 5585 5591 5595 5599 5603
5298 5298 5297 5296 5295 5294 5293 5293 5293 5293 5292 5293 5293 5292 5292 5292 5293 5293 5294 5295 5297 5298 5300 5302 5305 5307 5310 5314 5317 5319 5323 5327 5331 5335 5339 5342 5345 5348 5351 5354 5358 5363 5368 5373 5378 5383 5388 5393 5399 5405 5411 5417 5423 5428 5435 5441 5447 5453 5460 5463 5468 5474 5481 5487 5492 5498 5504 5509 5516 5523 5528 5534 5539 5543 5547 5552 5557 5562 5567 5573 5578 5583 5588 5593 5597 5600
5299 5298 5298 5296 5295 5294 5293 5293 5293 5293 5293 5293 5293 5293 5293 5293 5293 5294 5295 5296 5298 5300 5302 5304 5306 5309 5311 5314 5317 5320 5323 5328 5332 5336 5340 5343 5346 5348 5351 5355 5359 5363 5368 5374 5379 5384 5389 5394 5400 5406 5412 5417 5423 5428 5433 5439 5445 5452 5457 5462 5468 5474 5480 5485 5490 5496 5503 5509 5515 5521 5527 5532 5536 5541 5546 5551 5555 5560 5565 5570 5575 5580 5585 5589 5593 5597
5300 5299 5298 5297 5296 5295 5294 5293 5293 5293 5293 5293 5293 5293 5293 5294 5294 5295 5296 5298 5299 5301 5303 5306 5308 5310 5313 5315 5318 5320 5325 5329 5333 5337 5340 5343 5346 5349 5352 5356 5360 5365 5370 5375 5380 5386 5391 5397 5402 5407 5412 5417 5422 5427 5431 5438 5443 5448 5453 5460 5467 5473 5478 5482 5488 5495 5501 5507 5513 5520 5525 5530 5534 5539 5544 5549 5553 5558 5563 5568 5573 5578 5582 5586 5590 5594
5302 5300 5299 5298 5296 5295 5294 5294 5293 5293 5293 5294 5294 5294 5294 5295 5295 5296 5298 5299 5301 5303 5305 5307 5309 5312 5314 5316 5319 5322 5326 5330 5334 5338 5342 5345 5347 5350 5353 5357 5361 5366 5371 5376 5382 5388 5393 5398 5403 5408 5413 5418 5423 5427 5430 5436 5441 5445 5452 5458 5465 5471 5476 5482 5488 5495 5500 5505 5511 5517 5523 5528 5533 5538 5543 5547 5551 5556 5561 5566 5570 5575 5580 5584 5588 5591
5302 5301 5299 5298 5297 5296 5295 5294 5294 5294 5294 5294 5295 5295 5296 5296 5297 5298 5299 5300 5302 5304 5306 5308 5311 5313 5315 5318 5320 5323 5327 5331 5335 5339 5343 5346 5349 5351 5354 5358 5362 5367 5372 5378 5383 5389 5393 5399 5404 5409 5414 5418 5422 5426 5430 5435 5440 5446 5452 5458 5464 5469 5475 5481 5487 5493 5499 5504 5510 5516 5521 5526 5532 5536 5541 5545 5550 5555 5560 5564 5569 5573 5578 5582 5586 5590
5303 5302 5300 5298 5298 5297 5296 5295 5295 5295 5295 5296 5296 5297 5297 5298 5298 5299 5301 5302 5303 5306 5308 5310 5313 5315 5317 5319 5322 5325 5329 5333 5336 5340 5344 5347 5350 5353 5356 5359 5364 5368 5373 5379 5385 5390 5394 5399 5404 5409 5414 5418 5421 5425 5430 5436 5441 5446 5451 5457 5463 5469 5474 5480 5485 5491 5497 5503 5509 5515 5520 5525 5529 5534 5538 5544 5549 5554 5558 5563 5567 5572 5576 5580 5584 5589
5304 5303 5301 5299 5298 5298 5297 5296 5296 5296 5296 5297 5297 5298 5299 5299 5300 5301 5302 5303 5305 5307 5309 5311 5314 5316 5318 5320 5323 5327 5331 5334 5338 5341 5345 5348 5351 5354 5357 5361 5365 5371 5376 5381 5386 5390 5394 5398 5403 5409 5414 5418 5422 5426 5430 5436 5441 5446 5451 5456 5462 5468 5474 5479 5485 5491 5497 5503 5509 5515 5520 5524 5528 5532 5536 5542 5547 5551 5556 5560 5565 5570 5574 5578 5583 5588
5305 5303 5302 5301 5300 5299 5298 5298 5298 5298 5298 5298 5299 5299 5300 5301 5302 5303 5304 5305 5307 5308 5310 5313 5314 5317 5318 5321 5325 5328 5332 5336 5339 5343 5347 5350 5353 5356 5359 5363 5367 5373 5378 5384 5388 5392 5395 5400 5405 5409 5413 5417 5421 5424 5429 5435 5441 5446 5451 5456 5461 5467 5473 5479 5485 5491 5497 5502 5508 5513 5518 5523 5528 5533 5537 5541 5545 5549 5553 5558 5563 5568 5573 5577 5582 5587
5306 5305 5303 5302 5301 5300 5300 5299 5299 5299 5299 5300 5300 5301 5302 5303 5304 5305 5306 5307 5308 5310 5312 5313 5315 5317 5319 5322 5326 5329 5333 5336 5340 5344 5348 5351 5354 5357 5360 5364 5368 5374 5380 5385 5389 5393 5396 5401 5406 5410 5412 5415 5418 5422 5427 5433 5440 5447 5452 5457 5462 5468 5473 5479 5485 5491 5497 5502 5507 5513 5518 5523 5527 5532 5536 5540 5544 5548 5552 5557 5562 5568 5572 5576 5581 5585